Showing default

YAOGAN-30 D, 43028

Orbit data source: Space-Track

YAOGAN-30 D, 43028 is a payload satellite owned by PLA SSF (CN) in LEO that was launched on Fri, 24 Nov 2017 UTC via a CHANG ZHENG 2C launch vehicle from the Xichang Space Center, China (XSC). Payload-class satellites include a variety of spacecraft equipped with specific instruments for various scientific and technological missions. These include communications satellites like Starlink; space stations such as the ISS; scientific satellites like the Hubble; Earth observation satellites from companies like Planet Labs, Umbra, and HawkEye 360; GPS; miniature CubeSats for education and research; and military/defense satellites.

Loading next visibility...
Identifier
43028, 2017-075A
Orbit
LEO
Country
Flag of CNCN / PRC
Related business
Manufacturer
SECM
Mission
Operational Defense Sigint
Bus & Motor
Unknown
Mass
~500 kg wet, ~500 kg dry
Launch date (UTC)
2017-11-24 (8 years ago)
Launch vehicle
CHANG ZHENG 2C
Launch site
Xichang Space Center, China (XSC)
Object type
Payload
Rocket body
Debris
Shape & HBR
Box + 2 Pan, 0.5 m
Radar Cross Section
0.446 m², Large (>1 m²)

Expand to show TLE details & history
Last TLE update: 8 hours ago

TLE from 8 hours ago
0 YAOGAN-30 D
1 43028U 17075A   25261.99275752  .00003178  00000-0  24870-3 0  9992
2 43028  34.9937 121.3726 0000980  81.0506 279.0313 15.00606362426458
Epoch: 2025-09-18T23:49Z
TLE epoch observation values (Epoch: 2025-09-18T23:49:34.249Z)
Latitude
0.00001°
Longitude
125.83351°
Altitude
563.836 km
Speed
7.582 km/s
True Right ascension
08h 05m 29s
True Declination
0° 00' 00"
Sunlit
Object was in daylight at epoch
Visualization orbit readout
Latitude
Unknown
Longitude
Unknown
Altitude
Unknown
Speed
Unknown
Apparent Right ascension
Unknown
Apparent Declination
Unknown
Sunlit
N/A
Visualization observer readout
Local Sidereal Time
00:36:35
Azimuth
Unknown
Elevation
Unknown
Doppler factor
Unknown
Orbital elements
Apogee altitude
568.925 km
Perigee altitude
567.564 km
Semi-major axis
6,946.382 km
Eccentricity
0.0001
Inclination
34.9937°
RAAN
121.3726°
Arg. of periapsis
81.0506°
True anomaly
279.02021°
Mean anomaly
279.0313°
Eccentric anomaly
279.02575°
Mean motion
3.74891 °/min
Orbital period
96.03 mins
BSTAR
0.0002487
Loading maneuver chart data...
Computing Atmospheric mass density...
Loading historical data...
Loading historical data...
Loading historical data...
Loading historical data...
Loading historical data...
Loading historical data...
Loading historical data...
Other satellites on launch #75 in the year 2017 (2017-11-24 UTC)

Documentation

Showing up to 5 results
|